This demonstration page uses our WeatherBlox Daily Observations layout. Learn more.

Left ArrowRight Arrow

34.74481, -87.66753

Hourly Observations for February 13, 2020

Temp ( °F °C ) Dew Point ( °F °C ) Humidity (%) Winds ( mph kmh ) Pressure ( in mb ) Visibility ( mi km ) Precip ( " mm )
12:53 am 00:53 Cloudy with Rain 60 15.6 58 14.4 93 93 WNW 5 7 29.74 1007 5 8 0.02 0.51
1:08 am 01:08 Cloudy with Light Rain 60 15.6 58 14.4 93 93 W 8 13 29.74 1007 10 16 0.01 0.25
1:17 am 01:17 Cloudy with Light Rain 60 15.6 57 13.9 90 90 WSW 9 15 29.76 1008 9 14 0.02 0.51
1:53 am 01:53 Cloudy with Rain 59 15 57 13.9 93 93 WSW 10 17 29.77 1008 4 6 0.05 1.27
2:03 am 02:03 Cloudy with Heavy Rain 59 15 56 13.3 90 90 W 15 24 29.80 1009 3 5 0.00 0.00
2:33 am 02:33 Cloudy with Heavy Rain 56 13.3 53 11.7 90 90 WNW 14 22 29.79 1009 4 6 0.00 0.00
2:53 am 02:53 Cloudy with Rain 54 12.2 52 11.1 93 93 WNW 17 28 29.79 1009 7 11 0.00 0.00
3:00 am 03:00 Cloudy with Rain 54 12.2 52 11.1 93 93 WNW 16 26 29.81 1010 7 11 0.01 0.25
3:53 am 03:53 Cloudy 51 10.6 48 8.9 89 89 WNW 12 19 29.80 1009 10 16 0.04 1.02
4:53 am 04:53 Cloudy 50 10 46 7.8 86 86 NW 10 17 29.83 1010 10 16 0.03 0.76
5:53 am 05:53 Cloudy with Mist and Fog 48 8.9 45 7.2 89 89 NW 14 22 29.89 1012 3 5 0.00 0.00
6:32 am 06:32 Cloudy 47 8.3 43 6.1 86 86 NW 16 26 29.94 1014 10 16 0.00 0.00
6:53 am 06:53 Cloudy 46 7.8 42 5.6 86 86 WNW 17 28 29.94 1014 10 16 0.00 0.00
7:35 am 07:35 Cloudy 45 7.2 40 4.4 83 83 NW 16 26 29.98 1015 10 16 0.00 0.00
7:53 am 07:53 Cloudy 45 7.2 40 4.4 83 83 NW 10 17 29.98 1015 10 16 0.00 0.00
8:53 am 08:53 Cloudy 45 7.2 40 4.4 83 83 NNW 8 13 30.02 1017 7 11 0.00 0.00
9:53 am 09:53 Cloudy 44 6.7 40 4.4 85 85 NW 10 17 30.06 1018 7 11 0.00 0.00
10:08 am 10:08 Cloudy 44 6.7 39 3.9 83 83 NNW 16 26 30.09 1019 9 14 0.00 0.00
10:44 am 10:44 Cloudy 45 7.2 38 3.3 77 77 NNW 8 13 30.10 1019 10 16 0.00 0.00
10:53 am 10:53 Cloudy 45 7.2 36 2.2 71 71 NNW 10 17 30.09 1019 10 16 0.00 0.00
11:53 am 11:53 Cloudy 45 7.2 36 2.2 71 71 NNW 8 13 30.11 1020 10 16 0.00 0.00
12:53 pm 12:53 Cloudy 45 7.2 36 2.2 71 71 NNW 12 19 30.14 1021 10 16 0.00 0.00
1:53 pm 13:53 Cloudy 44 6.7 36 2.2 73 73 NNW 10 17 30.15 1021 10 16 0.00 0.00
2:53 pm 14:53 Cloudy 44 6.7 33 0.6 65 65 N 7 11 30.16 1022 10 16 0.00 0.00
3:53 pm 15:53 Cloudy 43 6.1 32 0 65 65 NNW 12 19 30.19 1022 10 16 0.00 0.00
4:53 pm 16:53 Cloudy 43 6.1 32 0 65 65 N 10 17 30.22 1023 10 16 0.00 0.00
5:44 pm 17:44 Cloudy 43 6.1 30 -1.1 60 60 N 13 20 30.25 1024 10 16 0.00 0.00
5:53 pm 17:53 Cloudy 42 5.6 29 -1.7 60 60 NNW 13 20 30.24 1024 10 16 0.00 0.00
6:53 pm 18:53 Cloudy 42 5.6 30 -1.1 62 62 VRB 7 11 30.27 1025 10 16 0.00 0.00
7:53 pm 19:53 Cloudy 42 5.6 29 -1.7 60 60 N 7 11 30.29 1026 10 16 0.00 0.00
8:53 pm 20:53 Cloudy 42 5.6 29 -1.7 60 60 N 6 9 30.30 1026 10 16 0.00 0.00
9:53 pm 21:53 Clear 39 3.9 31 -0.6 73 73 N 10 17 30.33 1027 10 16 0.00 0.00
10:53 pm 22:53 Clear 37 2.8 29 -1.7 73 73 N 13 20 30.34 1027 10 16 0.00 0.00
11:53 pm 23:53 Clear 35 1.7 27 -2.8 72 72 NNW 8 13 30.35 1028 10 16 0.00 0.00

Powered by AerisWeather